User: anonymous   Login
Location: Lynch Observatory
(39.9540°N, 75.1861°W)
Time: 11:56:36
(UTC-04:00)
Language:

Tiros 1 - Orbit

View from above orbital plane
View from above orbital plane
View from above satellite
View from above satellite

Ground track
Ground track

The orbit data is extracted from the following two-line orbital elements,

1    29U 60002B   24194.17502611  .00001200  00000-0  19981-3 0  9996
2    29  48.3783 130.5542 0022874 115.2760 245.0526 14.76466013437962
Epoch (UTC): 12 July 2024 04:12:02
Eccentricity: 0.0022874
inclination: 48.3783°
perigee height: 624 km
apogee height: 656 km
right ascension of ascending node: 130.5542°
argument of perigee: 115.2760°
revolutions per day: 14.76466013
mean anomaly at epoch: 245.0526°
orbit number at epoch: 43796

The dashed part of the orbit path shows where the satellite is in the earth's shadow,  

DLR